This demonstration page uses our WeatherBlox Daily Observations layout. Learn more.

Left ArrowRight Arrow

39.51506, -84.39828

Hourly Observations for April 18, 2020

Temp ( °F °C ) Dew Point ( °F °C ) Humidity (%) Winds ( mph kmh ) Pressure ( in mb ) Visibility ( mi km ) Precip ( " mm )
12:15 am 00:15 Cloudy 39 3.8 36 2 88 88 NNW 9 15 29.99 1016 N/A 0 0
12:35 am 00:35 undefined 38 3.5 35 1.8 89 89 NNW 9 15 30 1016 N/A 0 0
12:55 am 00:55 Cloudy 38 3.1 35 1.4 89 89 NNW 9 15 30.01 1016 N/A 0 0
1:15 am 01:15 Cloudy 37 2.8 33 0.7 86 86 NNW 10 17 30.02 1017 N/A 0 0
1:35 am 01:35 Cloudy 37 2.7 33 0.8 87 87 NNW 9 15 30.02 1017 N/A 0 0
1:55 am 01:55 Cloudy 37 2.5 33 0.4 86 86 N 10 17 30.02 1017 N/A 0 0
2:15 am 02:15 Cloudy 36 2.4 32 -0.1 84 84 NNW 12 19 30.03 1017 N/A 0 0
2:35 am 02:35 Cloudy 36 2.2 31 -0.8 81 81 N 16 26 30.03 1017 N/A 0 0
2:55 am 02:55 Cloudy 36 2.2 31 -0.7 81 81 NNW 10 17 30.04 1017 N/A 0 0
3:15 am 03:15 Cloudy 36 2.3 31 -0.5 82 82 NNW 6 9 30.03 1017 N/A 0 0
3:35 am 03:35 Cloudy 36 2.3 31 -0.6 81 81 NNW 6 9 30.03 1017 N/A 0 0
3:55 am 03:55 Cloudy 37 2.5 30 -1 78 78 NNW 6 9 30.04 1017 N/A 0 0
4:15 am 04:15 Cloudy 37 2.5 30 -1 78 78 NW 7 11 30.04 1017 N/A 0 0
4:35 am 04:35 Cloudy 37 2.5 30 -1 78 78 NNW 10 17 30.05 1018 N/A 0 0
4:55 am 04:55 Cloudy 37 2.5 30 -1.2 77 77 NW 6 9 30.06 1018 N/A 0 0
5:15 am 05:15 Cloudy 37 2.6 30 -1.1 77 77 NNW 10 17 30.07 1018 N/A 0 0
5:35 am 05:35 Cloudy 37 2.6 30 -1.3 76 76 NW 6 9 30.08 1019 N/A 0 0
5:55 am 05:55 Cloudy 37 2.6 30 -1.1 77 77 NW 5 7 30.09 1019 N/A 0 0
6:15 am 06:15 Cloudy 37 2.6 30 -1.1 77 77 NNW 9 15 30.1 1019 N/A 0 0
6:35 am 06:35 Cloudy 37 2.5 29 -1.4 76 76 NNW 9 15 30.11 1020 N/A 0 0
6:55 am 06:55 Partly Cloudy 35 1.8 29 -1.7 78 78 NW 6 9 30.11 1020 N/A 0 0
7:15 am 07:15 Sunny 34 1.1 29 -1.5 83 83 WNW 5 7 30.13 1020 N/A 0 0
7:35 am 07:35 Cloudy 35 1.4 30 -0.9 85 85 Calm 30.14 1021 N/A 0 0
7:55 am 07:55 undefined 36 2 31 -0.6 83 83 WNW 5 7 30.15 1021 N/A 0 0
8:15 am 08:15 Mostly Cloudy 38 3.1 32 0 80 80 WNW 7 11 30.15 1021 N/A 0 0
8:30 am 08:30 Mostly Cloudy 37 3 31 -0.4 79 79 W 9 15 30.15 1021 N/A 0 0
8:55 am 08:55 Partly Cloudy 38 3.2 30 -0.9 75 75 Calm 30.15 1021 N/A 0 0
9:15 am 09:15 Partly Cloudy 39 3.9 31 -0.5 73 73 W 8 13 30.16 1021 N/A 0 0
9:35 am 09:35 Sunny 40 4.2 31 -0.6 71 71 W 7 11 30.16 1021 N/A 0 0
9:55 am 09:55 Partly Cloudy 41 4.8 32 -0.1 71 71 W 5 7 30.16 1021 N/A 0 0
10:15 am 10:15 Mostly Cloudy 41 4.9 32 0.1 71 71 W 10 17 30.16 1021 N/A 0 0
10:35 am 10:35 Partly Cloudy 42 5.6 33 0.6 71 71 SW 6 9 30.16 1021 N/A 0 0
10:55 am 10:55 Partly Cloudy 43 6.2 33 0.5 67 67 NW 5 7 30.16 1021 N/A 0 0
11:15 am 11:15 Mostly Cloudy 44 6.5 33 0.3 65 65 Calm 30.15 1021 N/A 0 0
11:35 am 11:35 Mostly Cloudy 45 7.3 33 0.7 63 63 WSW 10 17 30.15 1021 N/A 0 0
11:55 am 11:55 Mostly Cloudy 46 7.5 33 0.6 62 62 S 6 9 30.15 1021 N/A 0 0
12:15 pm 12:15 Mostly Cloudy 46 7.8 32 0.2 59 59 WSW 6 9 30.13 1020 N/A 0 0
12:35 pm 12:35 Cloudy 47 8.3 33 0.3 57 57 WSW 9 15 30.13 1020 N/A 0 0
12:55 pm 12:55 Partly Cloudy 48 9.1 33 0.6 56 56 SW 6 9 30.12 1020 N/A 0 0
1:15 pm 13:15 Cloudy 48 8.8 32 -0.2 54 54 SW 7 11 30.12 1020 N/A 0 0
1:35 pm 13:35 Cloudy 49 9.4 31 -0.3 51 51 WSW 3 6 30.1 1019 N/A 0 0
1:55 pm 13:55 Cloudy 50 9.9 33 0.7 53 53 SSW 9 15 30.09 1019 N/A 0 0
2:15 pm 14:15 Partly Cloudy 50 10 32 -0.2 49 49 SSW 9 15 30.09 1019 N/A 0 0
2:35 pm 14:35 Partly Cloudy 52 10.9 32 0.1 48 48 WSW 7 11 30.08 1019 N/A 0 0
2:55 pm 14:55 Mostly Cloudy 53 11.8 33 0.4 46 46 W 9 15 30.06 1018 N/A 0 0
3:15 pm 15:15 Mostly Cloudy 52 11.2 31 -0.6 44 44 SSW 6 9 30.06 1018 N/A 0 0
3:35 pm 15:35 Mostly Cloudy 53 11.5 31 -0.5 44 44 WSW 14 22 30.05 1017 N/A 0 0
3:55 pm 15:55 Partly Cloudy 54 12.3 32 0.2 44 44 SSW 10 17 30.03 1017 N/A 0 0
4:15 pm 16:15 Mostly Cloudy 53 11.4 31 -0.7 43 43 WSW 8 13 30.03 1017 N/A 0 0
4:35 pm 16:35 Partly Cloudy 53 11.9 32 -0.2 44 44 S 6 9 30 1016 N/A 0 0
4:55 pm 16:55 Sunny 54 12.1 31 -0.6 42 42 SW 12 19 29.99 1016 N/A 0 0
5:15 pm 17:15 Sunny 54 12.3 32 0 43 43 SSW 9 15 29.99 1016 N/A 0 0
5:35 pm 17:35 Partly Cloudy 55 12.6 32 0 42 42 SW 8 13 29.99 1016 N/A 0 0
5:55 pm 17:55 Partly Cloudy 54 12.4 32 -0.1 42 42 WSW 10 17 29.98 1015 N/A 0 0
6:15 pm 18:15 Sunny 54 12.4 32 0.1 43 43 SSW 14 22 29.98 1015 N/A 0 0
6:35 pm 18:35 Sunny 54 12.3 31 -0.3 42 42 SW 13 20 29.98 1015 N/A 0 0
6:55 pm 18:55 Sunny 54 12.1 31 -0.6 42 42 WSW 9 15 29.98 1015 N/A 0 0
7:15 pm 19:15 Sunny 53 11.8 32 0 45 45 SW 10 17 29.97 1015 N/A 0 0
7:35 pm 19:35 Sunny 52 11.3 32 0 46 46 SW 13 20 29.98 1015 N/A 0 0
7:55 pm 19:55 Sunny 52 11 32 0.1 47 47 SW 13 20 29.98 1015 N/A 0 0
8:15 pm 20:15 Sunny 50 9.8 33 0.7 53 53 SSW 10 17 29.98 1015 N/A 0 0
8:35 pm 20:35 Clear 48 9 34 0.9 57 57 SSW 8 13 29.97 1015 N/A 0 0
8:55 pm 20:55 Clear 47 8.1 35 1.4 63 63 SW 7 11 29.98 1015 N/A 0 0
9:15 pm 21:15 Clear 45 7.1 34 1.3 67 67 SSW 6 9 29.99 1015 N/A 0 0
9:35 pm 21:35 Clear 45 7.2 34 1.3 66 66 SSW 6 9 29.99 1015 N/A 0 0
9:55 pm 21:55 Clear 42 5.7 37 2.6 81 81 SW 5 7 30 1016 N/A 0 0
10:15 pm 22:15 Clear 41 4.8 35 1.9 82 82 SW 5 7 29.99 1016 N/A 0 0
10:35 pm 22:35 Clear 40 4.7 35 1.5 80 80 SSW 6 9 29.99 1016 N/A 0 0
10:55 pm 22:55 Clear 42 5.4 34 1.2 75 75 SW 7 11 29.99 1016 N/A 0 0
11:15 pm 23:15 Clear 42 5.7 35 1.8 76 76 SW 7 11 29.99 1016 N/A 0 0
11:35 pm 23:35 Clear 42 5.6 34 1.3 74 74 SW 6 9 29.98 1015 N/A 0 0
11:55 pm 23:55 Clear 43 6.2 35 1.4 72 72 SW 6 9 29.97 1015 N/A 0 0

Powered by AerisWeather